Starlink 30401

operational
NORAD ID: 57818 Int'l Des: 2023-138 Owner: SPXS Country: US Constellation: starlink
LEOCIRCULAR

Starlink 30401について

説明を読み込み中...

リアルタイム位置

3D地球を読み込み中...

次回通過

高度履歴

Altitude vs Time

uPlot chart will show altitude changes over time

軌道要素

1 57818U 23138L 25352.90349856 -.00000882 00000-0 -50212-4 0 9991
2 57818 43.0027 315.0357 0000962 273.4637 86.6095 15.02534161126461
Epoch: Dec 18, 2025 • Age: 10 hours

現在のステータス

高度 560.3 km
速度 7.59 km/s
衛星直下点 30.25°N, 111.56°W
打ち上げ日 Sep 9, 2023
運用期間 2.2 years
タイプ internet

技術仕様

分類 Payload
質量 730.00 kg
乾燥質量 700.00 kg
総質量 730.00 kg
長さ 0.30 m
直径 4.10 m
スパン 29.00 m
形状 Box + pan
製造者 SPXS
バスタイプ Starlink V2M
フェーズステータス In Orbit
所有者/国 SPXS/US

大規模コンステレーション

Loading constellations...